Location: Seasalter
(51.3333°N, 1.0167°E)
Time: 06:53:48
(UTC+00:00)

ATLAS 5 CENTAUR R/B - Pass Details

Date: 23 April 2024
Orbit: 421 x 1169 km, 63.3° (Epoch: 18 May)

Event Time Altitude Azimuth Distance (km) Brightness Sun altitude
Rises 03:32:25 0° 304° (WNW) 3,062 4.9 -10.5°
Reaches altitude 10° 03:35:16 10° 285° (WNW) 2,282 4.1 -10.1°
Maximum altitude 03:38:44 18° 244° (WSW) 1,943 3.5 -9.7°
Drops below altitude 10° 03:42:38 10° 203° (SSW) 2,615 4.2 -9.2°
Sets 03:46:14 0° 186° (S) 3,703 5.2 -8.7°
